Weather History for Lakeville, MN

Change the Weather History Date:

Saturday, September 21, 2013

  Actual Average Record
Temperature  
Mean Temperature 52 °F -  
Max Temperature 62 °F 65 °F 89 °F (2005)
Min Temperature 41 °F 45 °F 32 °F (1999)
Degree Days  
Heating Degree Days 14    
Growing Degree Days 2 (Base 50)    
Moisture  
Dew Point 45 °F    
Average Humidity 83    
Maximum Humidity 100    
Minimum Humidity 55    
Precipitation  
Precipitation 0.00 in - - ()
Sea Level Pressure  
Sea Level Pressure 29.96 in    
Wind  
Wind Speed 4 mph (WNW)    
Max Wind Speed 8 mph    
Max Gust Speed -    
Visibility 10 miles    
Events      
Averages and records for this station are not official NWS values.
T = Trace of Precipitation, MM = Missing Value Source: NWS Daily Summary

Daily Weather History Graph

Daily Weather History Graph

Search for Another Location

Airport:

Trip Planner

Search our weather history database for the weather conditions in past years. The results will help you decide how hot, cold, wet, or windy it might be!

Date:

Astronomy

Sep. 21, 2013 Rise Set
Actual Time 6:59 AM CDT 7:11 PM CDT
Civil Twilight 6:30 AM CDT 7:40 PM CDT
Nautical Twilight 5:55 AM CDT 8:14 PM CDT
Astronomical Twilight 5:20 AM CDT 8:50 PM CDT
Moon 8:14 PM CDT (9/21) 9:25 AM CDT (9/21)
Length of Visible Light 13h 10m
Length of Day
12h 12m
Waning Gibbous, 94% of the Moon is Illuminated
Sep 21
Waning Gibbous
Sep 26
Last Quarter
Oct 4
New
Oct 11
First Quarter
Oct 18
Full

Hourly Weather History & Observations

Time (CDT) Temp. Windchill Dew Point Humidity Pressure Visibility Wind Dir Wind Speed Gust Speed Precip Events Conditions
12:12 AM 48.2 °F - 46.4 °F 93% 29.94 in 10.0 mi WNW 8.1 mph - N/A   Clear
12:32 AM 46.4 °F 43.5 °F 46.4 °F 100% 29.94 in 10.0 mi WNW 5.8 mph - N/A   Clear
12:52 AM 46.4 °F 44.3 °F 44.6 °F 93% 29.94 in 10.0 mi West 4.6 mph - N/A   Clear
1:12 AM 46.4 °F 43.5 °F 44.6 °F 93% 29.94 in 10.0 mi West 5.8 mph - N/A   Clear
1:32 AM 46.4 °F 45.2 °F 44.6 °F 93% 29.94 in 10.0 mi WNW 3.5 mph - N/A   Clear
1:52 AM 46.4 °F 45.2 °F 44.6 °F 93% 29.95 in 10.0 mi WNW 3.5 mph - N/A   Clear
2:12 AM 44.6 °F 42.2 °F 44.6 °F 100% 29.94 in 10.0 mi WNW 4.6 mph - N/A   Clear
2:32 AM 44.6 °F 42.2 °F 44.6 °F 100% 29.94 in 10.0 mi WNW 4.6 mph - N/A   Clear
2:52 AM 44.6 °F 42.2 °F 44.6 °F 100% 29.94 in 10.0 mi West 4.6 mph - N/A   Clear
3:12 AM 44.6 °F 42.2 °F 44.6 °F 100% 29.94 in 10.0 mi West 4.6 mph - N/A   Clear
3:32 AM 44.6 °F 42.2 °F 44.6 °F 100% 29.95 in 10.0 mi West 4.6 mph - N/A   Clear
3:52 AM 44.6 °F 42.2 °F 44.6 °F 100% 29.95 in 10.0 mi West 4.6 mph - N/A   Clear
4:12 AM 44.6 °F 42.2 °F 44.6 °F 100% 29.95 in 10.0 mi West 4.6 mph - N/A   Clear
4:32 AM 44.6 °F 42.2 °F 44.6 °F 100% 29.96 in 10.0 mi West 4.6 mph - N/A   Clear
4:53 AM 44.6 °F 42.2 °F 44.6 °F 100% 29.96 in 10.0 mi West 4.6 mph - N/A   Clear
5:12 AM 44.6 °F 43.1 °F 44.6 °F 100% 29.96 in 10.0 mi West 3.5 mph - N/A   Clear
5:32 AM 44.6 °F 42.2 °F 44.6 °F 100% 29.96 in 10.0 mi West 4.6 mph - N/A   Clear
5:52 AM 44.6 °F 42.2 °F 42.8 °F 93% 29.97 in 10.0 mi West 4.6 mph - N/A   Clear
6:12 AM 44.6 °F 42.2 °F 42.8 °F 93% 29.98 in 10.0 mi West 4.6 mph - N/A   Clear
6:33 AM 44.6 °F 42.2 °F 42.8 °F 93% 29.98 in 10.0 mi West 4.6 mph - N/A   Clear
6:52 AM 42.8 °F - 42.8 °F 100% 29.98 in 10.0 mi Calm Calm - N/A   Clear
7:12 AM 42.8 °F 41.1 °F 42.8 °F 100% 29.98 in 10.0 mi West 3.5 mph - N/A   Clear
7:33 AM 44.6 °F 43.1 °F 44.6 °F 100% 29.98 in 10.0 mi West 3.5 mph - N/A   Clear
7:52 AM 46.4 °F 45.2 °F 44.6 °F 93% 29.99 in 10.0 mi West 3.5 mph - N/A   Clear
8:12 AM 46.4 °F 44.3 °F 46.4 °F 100% 29.99 in 10.0 mi WNW 4.6 mph - N/A   Clear
8:32 AM 48.2 °F - 46.4 °F 93% 29.98 in 10.0 mi NW 5.8 mph - N/A   Clear
8:52 AM 50.0 °F - 46.4 °F 87% 29.98 in 10.0 mi NW 6.9 mph - N/A   Clear
9:12 AM 51.8 °F - 46.4 °F 82% 29.99 in 10.0 mi WNW 8.1 mph - N/A   Clear
9:32 AM 51.8 °F - 46.4 °F 82% 29.99 in 10.0 mi WNW 6.9 mph - N/A   Clear
9:52 AM 51.8 °F - 44.6 °F 76% 29.99 in 10.0 mi NW 3.5 mph - N/A   Scattered Clouds
10:12 AM 53.6 °F - 46.4 °F 77% 29.99 in 10.0 mi WNW 5.8 mph - N/A   Clear
10:32 AM 53.6 °F - 44.6 °F 72% 29.99 in 10.0 mi WNW 4.6 mph - N/A   Scattered Clouds
10:52 AM 53.6 °F - 44.6 °F 72% 30.00 in 10.0 mi Calm Calm - N/A   Mostly Cloudy
11:13 AM 53.6 °F - 44.6 °F 72% 29.99 in 10.0 mi Calm Calm - N/A   Mostly Cloudy
11:32 AM 55.4 °F - 44.6 °F 67% 29.99 in 10.0 mi Calm Calm - N/A   Scattered Clouds
11:52 AM 55.4 °F - 44.6 °F 67% 30.00 in 10.0 mi WNW 5.8 mph - N/A   Mostly Cloudy
12:12 PM 57.2 °F - 46.4 °F 67% 29.99 in 10.0 mi West 8.1 mph - N/A   Mostly Cloudy
12:32 PM 57.2 °F - 44.6 °F 63% 29.99 in 10.0 mi WNW 5.8 mph - N/A   Mostly Cloudy
12:52 PM 55.4 °F - 44.6 °F 67% 29.99 in 10.0 mi North 4.6 mph - N/A   Mostly Cloudy
1:12 PM 57.2 °F - 44.6 °F 63% 29.98 in 10.0 mi NNW 6.9 mph - N/A   Scattered Clouds
1:32 PM 57.2 °F - 46.4 °F 67% 29.98 in 10.0 mi NW 5.8 mph - N/A   Clear
1:52 PM 57.2 °F - 46.4 °F 67% 29.97 in 10.0 mi NW 4.6 mph - N/A   Clear
2:12 PM 60.8 °F - 46.4 °F 59% 29.97 in 10.0 mi NNW 4.6 mph - N/A   Clear
2:32 PM 60.8 °F - 46.4 °F 59% 29.96 in 10.0 mi West 8.1 mph - N/A   Clear
2:52 PM 60.8 °F - 46.4 °F 59% 29.95 in 10.0 mi NW 4.6 mph - N/A   Clear
3:12 PM 60.8 °F - 46.4 °F 59% 29.95 in 10.0 mi West 5.8 mph - N/A   Clear
3:32 PM 60.8 °F - 46.4 °F 59% 29.94 in 10.0 mi NNW 4.6 mph - N/A   Clear
3:52 PM 62.6 °F - 46.4 °F 55% 29.94 in 10.0 mi NNW 5.8 mph - N/A   Clear
4:12 PM 62.6 °F - 46.4 °F 55% 29.93 in 10.0 mi WNW 5.8 mph - N/A   Clear
4:32 PM 62.6 °F - 46.4 °F 55% 29.92 in 10.0 mi NNW 5.8 mph - N/A   Clear
4:52 PM 62.6 °F - 46.4 °F 55% 29.92 in 10.0 mi Calm Calm - N/A   Clear
5:12 PM 62.6 °F - 46.4 °F 55% 29.92 in 10.0 mi NNW 3.5 mph - N/A   Clear
5:32 PM 62.6 °F - 46.4 °F 55% 29.92 in 10.0 mi Calm Calm - N/A   Clear
5:52 PM 60.8 °F - 46.4 °F 59% 29.92 in 10.0 mi North 3.5 mph - N/A   Clear
6:12 PM 60.8 °F - 46.4 °F 59% 29.92 in 10.0 mi WNW 3.5 mph - N/A   Clear
6:32 PM 59.0 °F - 48.2 °F 67% 29.92 in 10.0 mi Calm Calm - N/A   Clear
6:52 PM 57.2 °F - 46.4 °F 67% 29.92 in 10.0 mi NNW 3.5 mph - N/A   Clear
7:12 PM 53.6 °F - 46.4 °F 77% 29.92 in 10.0 mi NNW 3.5 mph - N/A   Clear
7:32 PM 50.0 °F - 46.4 °F 87% 29.92 in 10.0 mi Calm Calm - N/A   Clear
7:52 PM 48.2 °F - 46.4 °F 93% 29.93 in 10.0 mi Calm Calm - N/A   Clear
8:12 PM 48.2 °F - 46.4 °F 93% 29.93 in 10.0 mi Calm Calm - N/A   Clear
8:32 PM 46.4 °F - 46.4 °F 100% 29.93 in 10.0 mi Calm Calm - N/A   Clear
8:52 PM 46.4 °F - 46.4 °F 100% 29.93 in 10.0 mi Calm Calm - N/A   Clear
9:12 PM 46.4 °F - 44.6 °F 93% 29.94 in 10.0 mi Calm Calm - N/A   Clear
9:33 PM 44.6 °F - 44.6 °F 100% 29.94 in 10.0 mi Calm Calm - N/A   Clear
9:52 PM 44.6 °F - 42.8 °F 93% 29.94 in 10.0 mi Calm Calm - N/A   Clear
10:12 PM 44.6 °F - 42.8 °F 93% 29.95 in 10.0 mi Calm Calm - N/A   Clear
10:32 PM 42.8 °F - 42.8 °F 100% 29.95 in 10.0 mi Calm Calm - N/A   Clear
10:52 PM 42.8 °F - 42.8 °F 100% 29.95 in 7.0 mi Calm Calm - N/A   Clear
11:12 PM 42.8 °F - 42.8 °F 100% 29.95 in 7.0 mi Calm Calm - N/A   Clear
11:32 PM 41.0 °F - 41.0 °F 100% 29.96 in 5.0 mi Calm Calm - N/A   Clear
11:52 PM 41.0 °F - 41.0 °F 100% 29.96 in 7.0 mi Calm Calm - N/A   Clear